Location: Charlottesville
(38.0290°N, 78.4770°W)
Time: 07:06:10
(UTC-04:00)

N. Korean satellite - Pass Details

Date: 13 October 2017
Orbit: 459 x 517 km, 97.2° (Epoch: 23 October)

Event Time Altitude Azimuth Distance (km) Brightness Sun altitude
Rises 19:45:17 0° 185° (S) 2,558 10.3 -13.9°
Reaches altitude 10° 19:47:28 10° 194° (SSW) 1,670 9.4 -14.3°
Maximum altitude 19:50:48 36° 262° (W) 787 8.3 -15.0°
Drops below altitude 10° 19:54:06 10° 330° (NNW) 1,653 9.7 -15.6°
Sets 19:56:16 0° 339° (NNW) 2,526 10.5 -16.1°
